Location: Godiavel Galaoual
(15.2485°N, 12.6604°W)
Time: 06:21:40
(UTC+00:00)

Okean 1 - Pass Details

Date: 27 February 2020
Orbit: 538 x 556 km, 82.5° (Epoch: 07 April)

Event Time Altitude Azimuth Distance (km) Brightness Sun altitude
Rises 20:25:47 0° 351° (N) 2,693 6.9 -22.0°
Reaches altitude 10° 20:27:57 10° 348° (NNW) 1,798 6.0 -22.5°
Maximum altitude 20:31:51 63° 267° (W) 600 3.6 -23.4°
Drops below altitude 10° 20:35:45 10° 185° (S) 1,789 6.0 -24.4°
Sets 20:37:54 0° 182° (S) 2,678 6.9 -24.9°
